Meteo Giornale » Osservazioni meteo Indonesia » Palembang-Talangbetutu
ore: 16:30 - Osservazioni Meteo Palembang-Talangbetutu
Lat. 2° 54' S Lon. 104° 42' E Alt. 10 metri s.l.m.
33 °C
Caligine
Temp. 24 Ore
26 °C
35 °C
Est/Sud-Est
24 Km/h
Dew point 23 °C
Umidità 55 %
Visibilità 5 Km
Il sole sorge alle ore 05:59
Il sole tramonta alle ore 18:03
| Data e Ora | Cielo e Fenomeni | T °C | DP °C | Um. % | Pres. hPa | Vis. km | Vento km/h | |
|---|---|---|---|---|---|---|---|---|
| Oggi h: 16:30 | Caligine | 33 | 23 | 55 | 1009 | 5 | E/SE 24 | |
| Oggi h: 16:00 | Nuvoloso | 34 | 23 | 52 | 1009 | 7 | SE 20.3 | |
| Oggi h: 15:30 | Nuvoloso | 35 | 22 | 47 | 1009 | 6 | E/SE 20.3 | |
| Oggi h: 15:00 | Nuvoloso | 35 | 22 | 47 | 1009 | 8 | E/SE 18.5 | |
| Oggi h: 14:30 | Nuvoloso | 35 | 22 | 47 | 1009 | 6 | E/SE 18.5 | |
| Oggi h: 14:00 | Nuvoloso | 35 | 22 | 47 | 1010 | 7 | E/SE 11.1 | |
| Oggi h: 13:30 | Nuvoloso | 34 | 22 | 49 | 1010 | 6 | SE 11.1 | |
| Oggi h: 13:00 | Nuvoloso | 34 | 22 | 49 | 1011 | 7 | E/SE 13 | |
| Oggi h: 12:30 | Caligine | 35 | 22 | 47 | 1011 | 5 | E/SE 16.7 | |
| Oggi h: 12:00 | Caligine | 34 | 23 | 52 | 1012 | 5 | E/SE 16.7 | |
| Oggi h: 11:30 | Caligine | 33 | 23 | 55 | 1012 | 5 | E/SE 16.7 | |
| Oggi h: 11:00 | Caligine | 32 | 23 | 59 | 1013 | 5 | E/SE 16.7 | |
| Oggi h: 10:30 | Caligine | 30 | 23 | 66 | 1013 | 5 | SE 16.7 | |
| Oggi h: 10:00 | Caligine | 31 | 24 | 66 | 1013 | 5 | E/SE 14.8 | |
| Oggi h: 09:30 | Nuvoloso | 31 | 24 | 66 | 1013 | 6 | E/SE 18.5 | |
| Oggi h: 09:00 | Nuvoloso | 30 | 24 | 70 | 1014 | 7 | SE 24 | |
| Oggi h: 08:30 | Nuvoloso | 30 | 24 | 70 | 1013 | 7 | SE 16.7 | |
| Oggi h: 08:00 | Caligine | 29 | 25 | 79 | 1013 | 4 | SE 13 | |
| Oggi h: 07:30 | Caligine | 27 | 25 | 88 | 1013 | 3 | SE 9.3 | |
| Oggi h: 07:00 | Caligine | 26 | 25 | 94 | 1013 | 3 | SE 7.4 | |
| Oggi h: 06:30 | Caligine | 26 | 25 | 94 | 1012 | 2 | SE 7.4 | |
| Oggi h: 06:00 | Caligine | 26 | 25 | 94 | 1012 | 2 | SE 9.3 | |
| Oggi h: 05:30 | Caligine | 26 | 25 | 94 | 1012 | 4 | SE 9.3 | |
| Oggi h: 05:00 | Caligine | 26 | 25 | 94 | 1011 | 5 | SE 9.3 | |
| Oggi h: 04:30 | Caligine | 26 | 25 | 94 | 1011 | 5 | N 5.5 | |
| Oggi h: 04:00 | Foschia | 26 | 25 | 94 | 1011 | 5 | N 3.7 | |
| Oggi h: 03:30 | Foschia | 26 | 25 | 94 | 1011 | 5 | N 5.5 | |
| Oggi h: 03:00 | Foschia | 26 | 25 | 94 | 1011 | 4 | N 5.5 | |
| Oggi h: 02:30 | Foschia | 26 | 25 | 94 | 1011 | 5 | N 3.7 | |
| Oggi h: 02:00 | Nuvoloso | 27 | 25 | 88 | 1011 | 6 | SE 7.4 | |
| Oggi h: 01:30 | Poco Nuvoloso | 26 | 25 | 94 | 1011 | 6 | N 3.7 | |
| Oggi h: 01:00 | Poco Nuvoloso | 27 | 25 | 88 | 1011 | 6 | N 5.5 | |
| Oggi h: 00:30 | Poco Nuvoloso | 27 | 25 | 88 | 1011 | 7 | E/SE 11.1 | |
| Oggi h: 00:00 | Poco Nuvoloso | 27 | 25 | 88 | 1011 | 7 | SE 13 | |
| Ieri h: 23:30 | Poco Nuvoloso | 27 | 25 | 88 | 1011 | 10 | SE 14.8 | |
| Ieri h: 23:00 | Poco Nuvoloso | 27 | 25 | 88 | 1012 | 10 | SE 16.7 | |
| Ieri h: 22:30 | Poco Nuvoloso | 27 | 24 | 83 | 1012 | 10 | E/SE 18.5 | |
| Ieri h: 22:00 | Nuvoloso | 28 | 24 | 78 | 1011 | 10 | E/SE 18.5 | |
| Ieri h: 21:30 | Nuvoloso | 28 | 24 | 78 | 1011 | 10 | SE 18.5 | |
| Ieri h: 21:00 | Nuvoloso | 28 | 24 | 78 | 1011 | 7 | SE 18.5 | |
| Ieri h: 20:30 | Caligine | 29 | 24 | 74 | 1011 | 5 | E/SE 20.3 | |
| Ieri h: 20:00 | Caligine | 29 | 23 | 70 | 1011 | 5 | E/SE 20.3 | |
| Ieri h: 19:30 | Nuvoloso | 29 | 23 | 70 | 1010 | 8 | E/SE 20.3 | |
| Ieri h: 19:00 | Nuvoloso | 30 | 23 | 66 | 1010 | 8 | E/SE 20.3 | |
| Ieri h: 18:30 | Nuvoloso | 30 | 23 | 66 | 1009 | 7 | E/SE 18.5 | |
| Ieri h: 18:00 | Caligine | 31 | 23 | 62 | 1009 | 5 | E/SE 22.2 | |



